Location: Newark
(45.0667°N, 7.8333°E)
Time: 10:00:36
(UTC+00:00)

BEESAT 3 - Visible Passes

Search period start: 19 October 2019 00:00
Search period end: 29 October 2019 00:00
Orbit: 479 x 530 km, 64.9° (Epoch: 18 October)

Date Brightness Start Highest point End Pass type
(mag) Time Alt. Az. Time Alt. Az. Time Alt. Az.
19 Oct ? 04:42:18 10° N 04:43:42 11° NNE 04:45:06 10° NE visible
20 Oct ? 04:23:09 10° NNE 04:24:21 11° NNE 04:25:34 10° NE visible
21 Oct ? 04:04:02 10° NNE 04:05:01 11° NNE 04:05:59 10° NE visible
22 Oct ? 03:45:01 10° NNE 03:45:40 10° NNE 03:46:20 10° NE visible
22 Oct ? 05:20:06 10° NNW 05:24:02 50° NE 05:27:52 10° SE visible
23 Oct ? 05:00:49 10° NNW 05:04:43 47° NE 05:08:33 10° SE visible
24 Oct ? 04:41:32 10° NNW 04:45:24 45° NE 04:49:12 10° ESE visible
25 Oct ? 04:22:20 11° NNW 04:26:04 42° NE 04:29:52 10° ESE visible
26 Oct ? 04:04:11 18° NNW 04:06:45 40° NE 04:10:30 10° ESE visible
27 Oct ? 03:46:09 30° N 03:47:26 38° NE 03:51:09 10° ESE visible
27 Oct ? 05:21:28 10° WNW 05:24:38 23° WSW 05:27:46 10° SSW visible
28 Oct ? 03:28:15 36° NE 03:28:15 36° NE 03:31:47 10° ESE visible
28 Oct ? 05:03:04 15° WNW 05:05:20 24° WSW 05:08:33 10° S visible
